Tracking 31027 objects as of 19-Jul-2025
HD Live streaming from Space Station
objects crossing your sky now

IUS R/B(2)

Track IUS R/B(2) now!


NORAD ID: 23615
Int'l Code: 1995-035D
Perigee: 35,687.1 km
Apogee: 35,781.6 km
Inclination: 15.9 °
Period: 1,433.1 minutes
Semi major axis: 42105 km
RCS: 5.3271 m2 (large)
Launch date: July 13, 1995
Source: United States (US)
Launch site: AIR FORCE EASTERN TEST RANGE (AFETR)

Note: This is a ROCKET BODY
Your satellite tracking list
FLOCK 4X 28
Track 1 satellite(s)




NASA's NSSDC Master Catalog

Two Line Element Set (TLE):
1 23615U 95035D   25199.12962691  .00000042  00000-0  00000-0 0  9997
2 23615  15.8963 344.6328 0011223 170.4344 193.7164  1.00484058110051
Source of the keplerian elements: AFSPC